Regional Weather Roundup
Issued by NWS

Home | Current Version | Previous Version | Text Only | Print | Product List | Glossary Off
Versions: 1 2 3 4 5 6 7 8 9 10 11 12 13 14 15 16 17 18 19 20 21 22 23 24 25 26 27 28 29 30 31 32 33 34 35 36 37 38 39 40 41 42 43 44 45 46 47 48 49 50

000
ASUS45 KCYS 220910
RWRWY

WYOMING REGIONAL WEATHER ROUNDUP
NATIONAL WEATHER SERVICE CHEYENNE WY
300 AM MDT FRI MAY 22 2015

NOTE:  "FAIR" INDICATES FEW OR NO CLOUDS BELOW 12,000 FEET
WITH NO SIGNIFICANT WEATHER AND/OR OBSTRUCTIONS TO VISIBILITY.

WYZ001-221000-
YELLOWSTONE NATIONAL PARK

CITY           SKY/WX    TMP DP  RH WIND       PRES   REMARKS
LK YELLOWSTONE   N/A     35  32  88 CALM      30.08S
W YELLOWSTONE  NOT AVBL

$$
WYZ002>013-054>058-071-098>099-221000-
NORTHERN WYOMING

CITY           SKY/WX    TMP DP  RH WIND       PRES   REMARKS
JACKSON        CLOUDY    45  43  93 CALM      30.00F
CODY           CLOUDY    48  41  76 SW10      29.97S
GREYBULL       FAIR      52  47  83 S5        29.95S
WORLAND        FAIR      48  44  86 E6        29.95F
SHERIDAN       FAIR      47  42  83 S12       29.98S
BUFFALO        FAIR      44  42  93 S9        30.01F
GILLETTE       FAIR      46  42  86 S6        30.03S
HULETT         PTSUNNY   46  37  71 E7        30.08S
NEWCASTLE      CLOUDY    50  41  71 SE12G21   30.09S

$$
WYZ014>020-022>026-101>103-221000-
CENTRAL WYOMING

CITY           SKY/WX    TMP DP  RH WIND       PRES   REMARKS
BIG PINEY      MOCLDY    44  40  85 CALM      30.04F
PINEDALE       CLOUDY    43  41  93 NE3       30.04F
DUBOIS         CLOUDY    39  36  87 CALM      30.04S
LANDER         FAIR      47  42  83 SE3       29.97F
RIVERTON       FAIR      46  43  89 E6        30.00F
CASPER         CLOUDY    45  43  93 E8        30.01S
DOUGLAS        CLOUDY    48  44  86 SE18      30.05S

$$
WYZ021-027>030-104>119-221000-
SOUTHERN WYOMING

CITY           SKY/WX    TMP DP  RH WIND       PRES   REMARKS
EVANSTON       CLOUDY    41  38  89 E9        29.99F
KEMMERER       FAIR      41  36  81 NE7       30.02F
FORT BRIDGER   SUNNY     41  41 100 CALM      30.04S
ROCK SPRINGS   CLOUDY    42  39  89 SW7       30.00F
DIXON          DRIZZLE   48  44  87 NE6       30.01F
RAWLINS        LGT RAIN  44  41  89 W3        30.02F
SARATOGA       DRIZZLE   43  41  93 MISG      30.03F
LARAMIE        CLOUDY    43  41  93 SE13      30.03F
CHEYENNE       CLOUDY    43  42  97 S15G23    30.05F FOG
TORRINGTON     CLOUDY    50  44  80 SE10      30.06F
PINE BLUFFS    CLOUDY    45  43  93 SE10      30.09S

$$


USA.gov is the U.S. government's official web portal to all federal, state and local government web resources and services.